Regional Weather Roundup
Issued by NWS Little Rock, AR

Home | Current Version | Previous Version | Text Only | Print | Product List | Glossary Off
Versions: 1 2 3 4 5 6 7 8 9 10 11 12 13 14 15 16 17 18 19 20 21 22 23 24 25 26 27 28 29 30 31 32 33 34 35 36 37 38 39 40 41 42 43 44 45 46 47 48 49 50

000
ASUS44 KLZK 251805
RWRLZK

WEATHER ROUNDUP FOR ARKANSAS
NATIONAL WEATHER SERVICE LITTLE ROCK AR
100 PM CDT MON MAY 25 2015

NOTE: "FAIR" INDICATES FEW OR NO CLOUDS BELOW 12,000 FEET WITH NO
SIGNIFICANT WEATHER AND/OR OBSTRUCTIONS TO VISIBILITY.

ARZ001-003-010-029-251900-
NORTHWEST ARKANSAS

CITY           SKY/WX    TMP DP  RH WIND       PRES   REMARKS
FAYETTEVILLE   PTSUNNY   78  68  71 S14       29.98R
6HR MIN TEMP:  63; 6HR MAX TEMP:  78;

FORT SMITH     PTSUNNY   80  66  62 S12       29.96R
6HR MIN TEMP:  64; 6HR MAX TEMP:  81;

HARRISON       PTSUNNY   77  66  68 S14       30.00F
6HR MIN TEMP:  66; 6HR MAX TEMP:  78;

BENTONVILLE    CLOUDY    77  64  65 SW9G16    29.98S
6HR MIN TEMP:  64; 6HR MAX TEMP:  79;

ROGERS         CLOUDY    79  66  64 S15       29.98S
6HR MIN TEMP:  66; 6HR MAX TEMP:  79; 6HR PCP:  0.01;

SILOAM SPGS    CLOUDY    79  64  61 S18       29.98S
6HR MIN TEMP:  63; 6HR MAX TEMP:  79;

HIGHFILL       MOSUNNY   79  67  66 S14       29.97R
6HR MIN TEMP:  61; 6HR MAX TEMP:  79;

SPRINGDALE     CLOUDY    77  66  69 S15       30.00R
$$

ARZ004-005-016-251900-
NORTH CENTRAL ARKANSAS

CITY           SKY/WX    TMP DP  RH WIND       PRES   REMARKS
BATESVILLE     PTSUNNY   81  70  69 SE8       30.03S
6HR MIN TEMP:  70; 6HR MAX TEMP:  81;

FLIPPIN        PTSUNNY   81  68  65 SE7       29.99R
6HR MIN TEMP:  64; 6HR MAX TEMP:  81;

MTN HOME       PTSUNNY   77  68  73 SE10      30.00S
6HR MIN TEMP:  66; 6HR MAX TEMP:  78;

$$

ARZ040-041-251900-
WEST CENTRAL ARKANSAS

CITY           SKY/WX    TMP DP  RH WIND       PRES   REMARKS
MENA           CLOUDY    75  70  83 SE5       30.02S
MOUNT IDA      CLOUDY    74  67  78 VRB5      30.01R
6HR MIN TEMP:  70; 6HR MAX TEMP:  74;

$$

ARZ009-017-025-026-028-251900-
NORTHEAST ARKANSAS

CITY           SKY/WX    TMP DP  RH WIND       PRES   REMARKS
CORNING          N/A     79  70  73 S13       30.05S
JONESBORO      CLOUDY    74  68  81 S10       30.06S
6HR MIN TEMP:  69; 6HR MAX TEMP:  76;

NEWPORT        CLOUDY    79  68  69 S9        30.05S
6HR MIN TEMP:  71; 6HR MAX TEMP:  80;

WALNUT RIDGE   PTSUNNY   75  68  78 S15       30.05S
6HR MIN TEMP:  70; 6HR MAX TEMP:  77;

BLYTHEVILLE    CLOUDY    75  70  84 S13       30.08S
6HR MIN TEMP:  69; 6HR MAX TEMP:  75;

$$

ARZ022-023-033-042-044-251900-
CENTRAL ARKANSAS

CITY           SKY/WX    TMP DP  RH WIND       PRES   REMARKS
LITTLE ROCK    PTSUNNY   79  66  64 VRB6G16   30.03S
6HR MIN TEMP:  71; 6HR MAX TEMP:  79;

N LITTLE ROCK  PTSUNNY   75  69  84 S7        30.03S
6HR MIN TEMP:  69; 6HR MAX TEMP:  76;

SEARCY         CLOUDY    79  69  71 S8        30.05S
6HR MIN TEMP:  70; 6HR MAX TEMP:  79;

HOT SPRINGS    CLOUDY    75  68  78 S6        30.03R
6HR MIN TEMP:  70; 6HR MAX TEMP:  75;

RUSSELLVILLE   CLOUDY    76  69  79 VRB7      30.01R
6HR MIN TEMP:  69; 6HR MAX TEMP:  76;

CLINTON        PTSUNNY   77  68  73 SE6       30.03F
$$

ARZ036-251900-
EAST ARKANSAS

CITY           SKY/WX    TMP DP  RH WIND       PRES   REMARKS
WEST MEMPHIS   CLOUDY    76  71  85 S13       30.06F
6HR MIN TEMP:  68; 6HR MAX TEMP:  77;

$$

ARZ050-053-066-070-073-251900-
SOUTHWEST ARKANSAS

CITY           SKY/WX    TMP DP  RH WIND       PRES   REMARKS
ARKADELPHIA    MOCLDY    82  71  69 S10       30.03R HX  86
6HR MIN TEMP:  70; 6HR MAX TEMP:  82;

CAMDEN         PTSUNNY   81  68  65 NE6       30.02S
TEXARKANA      PTSUNNY   81  71  71 S8        30.00S HX  85
6HR MIN TEMP:  70; 6HR MAX TEMP:  82;

EL DORADO      MOSUNNY   82  70  66 E7        30.02F HX  86
6HR MIN TEMP:  71; 6HR MAX TEMP:  82;

DE QUEEN       CLOUDY    79  69  71 S8        29.97S
6HR MIN TEMP:  70; 6HR MAX TEMP:  79;

$$

ARZ056-057-069-251900-
SOUTHEAST ARKANSAS

CITY           SKY/WX    TMP DP  RH WIND       PRES   REMARKS
PINE BLUFF     PTSUNNY   80  69  69 S8        30.04S
6HR MIN TEMP:  70; 6HR MAX TEMP:  81;

STUTTGART      CLOUDY    81  66  61 MISG      30.05S
6HR MIN TEMP:  70; 6HR MAX TEMP:  81;

MONTICELLO     PTSUNNY   82  70  66 SE7       30.04S HX  86
6HR MIN TEMP:  70; 6HR MAX TEMP:  82;


$$




USA.gov is the U.S. government's official web portal to all federal, state and local government web resources and services.